TimeEST,TemperatureF,Dew PointF,Humidity,Sea Level PressureIn,VisibilityMPH,Wind Direction,Wind SpeedMPH,Gust SpeedMPH,PrecipitationIn,Events,Conditions,WindDirDegrees,DateUTC
3:54 AM,30.9,16.0,54,30.16,10.0,West,16.1,-,N/A,,Overcast,270,2012-01-02 08:54:00
4:54 AM,30.9,17.1,57,30.14,10.0,West,16.1,23.0,N/A,,Overcast,280,2012-01-02 09:54:00
5:54 AM,30.0,16.0,56,30.15,10.0,WNW,13.8,23.0,N/A,,Overcast,290,2012-01-02 10:54:00
6:54 AM,28.9,14.0,54,30.15,10.0,West,17.3,26.5,N/A,,Overcast,270,2012-01-02 11:54:00
7:05 AM,28.4,15.8,59,30.13,10.0,West,18.4,29.9,0.00,Snow,Light Snow,280,2012-01-02 12:05:00
7:54 AM,28.0,16.0,61,30.14,9.0,WNW,12.7,19.6,0.00,Snow,Light Snow,290,2012-01-02 12:54:00
8:54 AM,28.0,17.1,63,30.14,9.0,WSW,11.5,18.4,0.00,Snow,Light Snow,250,2012-01-02 13:54:00
9:54 AM,28.4,17.6,64,30.12,9.0,West,19.6,26.5,N/A,,Overcast,260,2012-01-02 14:54:00
10:54 AM,30.2,12.2,47,30.12,10.0,West,18.4,32.2,N/A,,Overcast,280,2012-01-02 15:54:00
11:24 AM,28.4,17.6,64,30.13,7.0,West,19.6,27.6,0.00,Snow,Light Snow,280,2012-01-02 16:24:00
11:35 AM,26.6,19.4,74,30.13,0.5,WNW,19.6,27.6,0.00,Snow,Snow,290,2012-01-02 16:35:00
11:46 AM,26.6,21.2,80,30.13,2.0,West,13.8,-,0.00,Snow,Light Snow,270,2012-01-02 16:46:00
11:54 AM,28.0,21.0,75,30.16,9.0,West,18.4,26.5,0.00,Snow,Light Snow,280,2012-01-02 16:54:00
12:24 PM,28.4,19.4,69,30.12,7.0,West,23.0,31.1,0.00,Snow,Light Snow,270,2012-01-02 17:24:00
12:32 PM,28.4,17.6,64,30.12,8.0,West,19.6,31.1,0.00,Snow,Light Snow,280,2012-01-02 17:32:00
12:49 PM,24.8,17.6,74,30.13,6.0,WNW,19.6,27.6,0.00,Snow,Light Snow,290,2012-01-02 17:49:00
12:54 PM,25.0,15.1,66,30.16,4.0,West,21.9,32.2,0.00,Snow,Light Snow,280,2012-01-02 17:54:00
1:06 PM,26.6,12.2,55,30.13,9.0,West,21.9,33.4,0.00,,Overcast,270,2012-01-02 18:06:00
1:54 PM,27.0,10.9,51,30.16,10.0,West,18.4,29.9,0.00,,Overcast,280,2012-01-02 18:54:00
2:54 PM,26.6,12.2,55,30.14,9.0,WNW,21.9,29.9,N/A,,Overcast,290,2012-01-02 19:54:00
3:54 PM,25.0,12.9,60,30.19,10.0,WNW,16.1,26.5,N/A,,Overcast,300,2012-01-02 20:54:00
4:54 PM,24.1,12.9,62,30.22,10.0,West,16.1,23.0,N/A,,Overcast,280,2012-01-02 21:54:00
5:54 PM,21.9,14.0,72,30.24,10.0,West,13.8,-,N/A,,Overcast,280,2012-01-02 22:54:00
6:54 PM,21.0,16.0,81,30.27,5.0,NW,10.4,-,0.00,Snow,Light Snow,310,2012-01-02 23:54:00
7:52 PM,21.2,14.0,74,30.24,10.0,WNW,10.4,-,0.00,,Overcast,300,2012-01-03 00:52:00
7:54 PM,21.0,14.0,74,30.28,10.0,WNW,10.4,-,0.00,,Overcast,300,2012-01-03 00:54:00
8:54 PM,19.9,14.0,78,30.29,10.0,WNW,10.4,-,N/A,,Mostly Cloudy,300,2012-01-03 01:54:00
9:01 PM,19.4,14.0,80,30.25,10.0,WNW,11.5,-,N/A,,Partly Cloudy,300,2012-01-03 02:01:00
9:54 PM,19.9,12.9,74,30.30,10.0,WNW,10.4,-,N/A,,Mostly Cloudy,290,2012-01-03 02:54:00
10:54 PM,19.0,12.9,77,30.31,10.0,WNW,5.8,-,N/A,,Clear,290,2012-01-03 03:54:00
11:54 PM,18.0,12.9,81,30.32,10.0,WNW,10.4,-,N/A,,Scattered Clouds,290,2012-01-03 04:54:00